Flight Information

DEPARTURE
EL PASO, TX
Elevation:
3961
Runways:
8L/26R - 5499x75 - CONC-G
8R/26L - 9025x150 - ASPH-CONC-F
4/22 - 12020x150 - ASPH-CONC-F
Active PE Departure:
22 - 26L - 26R
Current PE ATIS:
E
Altimeter:
30.14
Remarks:
R N P APPROACHES AVAILABLE UPON PILOT REQUEST.
ATIS:
120.0 915-772-9412
Clearance Delivery:
125
Ground:
121.9
Tower:
EL PASO TOWER 118.3
DESTINATION
,
Elevation:
TPA:
1000 (est.)


6231.6 NM81° True-11° Var70° HDG

Flight Plan:
(click to file on line)

1. Type
2. Aircraft Identification
3. Aircraft Type / Special Equipment
4. True Airspeed
kts
5. Departure Airport
(ICAO code)
6. Arriving Airport
(ICAO code)
7. Cruising Altitude
ft
8. Alternate Airport
(ICAO code)
9. Route of Flight
10. Remarks


00:00:00 Departure ATIS: Destination ATIS:

Clearance Limit:
Route:
Altitude: Expect in minutes
Frequency:
Transponder: (7500 Hijack / 7600 Lost Comms / 7700 Emergency)


KELP 010351Z 00000KT 10SM CLR 23/M02 A3014 RMK AO2 SLP144 T02331022
Time: 2020-10-01T03:51:00Z
1601526241
Winds: calm
Visibility: 10.0 sm
Clouds (AGL): CLR
Temperature: 23.3 C
Dew Point: -2.2 C
Pressure: 30.138779 in Hgbr


Notes:

Data extracted from FAA Digital Chart Supplement. Effective: 0901Z Thursday, Sep 10, 2020 to 0901Z Thursday, Nov 5, 2020
Current ATIS data is provided courtisy of PilotEdge.